Location: Newark
(26.8229°N, 81.7649°W)
Time: 13:32:14
(UTC+00:00)

Hubble Space Telescope - Visible Passes

Search period start: 24 January 2020 00:00
Search period end: 03 February 2020 00:00
Orbit: 536 x 540 km, 28.5° (Epoch: 23 January)

Date Brightness Start Highest point End Pass type
(mag) Time Alt. Az. Time Alt. Az. Time Alt. Az.
26 Jan 3.6 11:00:57 10° S 11:02:55 13° SSE 11:04:54 10° ESE visible
27 Jan 3.3 10:49:30 10° SSW 10:52:13 17° SSE 10:54:58 10° ESE visible
28 Jan 2.9 10:39:03 13° SSW 10:41:32 22° SSE 10:44:46 10° ESE visible
29 Jan 2.4 10:29:39 24° S 10:30:51 28° SSE 10:34:24 10° E visible
30 Jan 2.0 10:20:06 35° SSE 10:20:12 35° SSE 10:23:58 10° E visible
31 Jan 2.1 10:10:25 37° SE 10:10:25 37° SE 10:13:28 10° E visible
31 Jan 0.8 11:46:32 10° W 11:50:40 80° N 11:54:47 10° E visible
01 Feb 2.6 10:00:38 30° E 10:00:38 30° E 10:02:56 10° E visible
01 Feb 0.8 11:35:59 10° W 11:40:04 73° N 11:44:12 10° E visible
02 Feb 3.1 09:50:46 22° E 09:50:46 22° E 09:52:22 10° E visible
02 Feb 0.8 11:26:07 15° W 11:29:30 70° N 11:33:36 10° E visible
